TimeCST,TemperatureF,Dew PointF,Humidity,Sea Level PressureIn,VisibilityMPH,Wind Direction,Wind SpeedMPH,Gust SpeedMPH,PrecipitationIn,Events,Conditions,WindDirDegrees,DateUTC
12:53 AM,39.0,26.1,60,30.18,10.0,NNW,6.9,-,N/A,,Clear,340,2013-11-19 06:53:00
1:53 AM,37.0,26.1,65,30.18,10.0,North,4.6,-,N/A,,Clear,350,2013-11-19 07:53:00
2:53 AM,36.0,26.1,67,30.18,10.0,North,6.9,-,N/A,,Clear,360,2013-11-19 08:53:00
3:53 AM,35.1,25.0,67,30.18,10.0,North,5.8,-,N/A,,Clear,360,2013-11-19 09:53:00
4:53 AM,34.0,25.0,70,30.19,10.0,North,4.6,-,N/A,,Clear,10,2013-11-19 10:53:00
5:53 AM,34.0,25.0,70,30.21,10.0,NNE,5.8,-,N/A,,Clear,30,2013-11-19 11:53:00
6:53 AM,33.1,26.1,75,30.22,9.0,NE,9.2,-,0.00,,Clear,40,2013-11-19 12:53:00
7:53 AM,35.1,26.1,70,30.23,9.0,NE,8.1,17.3,0.00,Snow,Light Snow,40,2013-11-19 13:53:00
8:53 AM,37.0,26.1,65,30.25,10.0,NE,9.2,-,0.00,Snow,Light Snow,50,2013-11-19 14:53:00
9:53 AM,42.1,25.0,51,30.25,10.0,NNE,6.9,-,0.00,,Clear,30,2013-11-19 15:53:00
10:53 AM,44.1,21.9,42,30.23,10.0,NNE,11.5,-,N/A,,Clear,30,2013-11-19 16:53:00
11:53 AM,46.9,21.0,36,30.21,10.0,NNE,10.4,18.4,N/A,,Clear,30,2013-11-19 17:53:00
12:53 PM,48.0,21.0,34,30.19,10.0,NNE,9.2,20.7,N/A,,Clear,30,2013-11-19 18:53:00
1:53 PM,48.9,23.0,36,30.18,10.0,NNE,11.5,16.1,N/A,,Clear,20,2013-11-19 19:53:00
2:53 PM,46.9,24.1,41,30.17,10.0,North,8.1,-,N/A,,Clear,10,2013-11-19 20:53:00
3:53 PM,45.0,23.0,42,30.19,10.0,North,8.1,-,N/A,,Clear,10,2013-11-19 21:53:00
4:53 PM,44.1,23.0,43,30.18,10.0,North,9.2,-,N/A,,Clear,10,2013-11-19 22:53:00
5:53 PM,45.0,23.0,42,30.22,10.0,NE,6.9,-,N/A,,Clear,40,2013-11-19 23:53:00
6:53 PM,42.1,25.0,51,30.23,10.0,NNE,9.2,-,N/A,,Clear,30,2013-11-20 00:53:00
7:53 PM,42.1,26.1,53,30.21,10.0,NE,9.2,-,N/A,,Clear,50,2013-11-20 01:53:00
8:53 PM,41.0,26.1,55,30.21,10.0,NE,8.1,-,N/A,,Clear,50,2013-11-20 02:53:00
9:53 PM,39.9,26.1,58,30.20,10.0,ENE,5.8,-,N/A,,Clear,70,2013-11-20 03:53:00
10:53 PM,39.0,26.1,60,30.19,10.0,NE,5.8,-,N/A,,Clear,50,2013-11-20 04:53:00
11:53 PM,37.0,26.1,65,30.19,10.0,North,4.6,-,0.00,,Clear,10,2013-11-20 05:53:00